{"data":{"norad_id":57510,"intl_designator":"2023-113R","name":"STARLINK-30153","alt_names":[],"object_type":"PAYLOAD","status":"ACTIVE","operator":null,"country":"US","launch_date":"2023-08-07","launch_site_code":"AFETR","launch_vehicle":null,"mission":null,"orbit_class":"UNKNOWN","rcs_meters":null,"size_class":null,"mass_kg":null,"dimensions":null,"purposes":["comms"],"wikipedia_slug":null,"has_3d_model":false,"image_url":null,"decayed_at":null,"tle_current":{"epoch":"2026-05-25T03:42:29.417760Z","epoch_age_seconds":65668,"freshness":"FRESH","line1":"1 57510U 23113R   26145.15450715  .00000569  00000+0  30218-4 0  9991","line2":"2 57510  43.0056 303.8949 0002171 264.8249  95.2355 15.27580909155264","mean_motion":15.27580909,"eccentricity":0.0002171,"inclination_deg":43.0056,"raan_deg":303.8949,"arg_perigee_deg":264.8249,"mean_anomaly_deg":95.2355,"bstar":3.0218e-5,"rev_number":15526,"period_min":94.266692619422,"perigee_km":481.55681125746,"apogee_km":484.53593707852,"semimajor_km":6861.183374168,"source":"CELESTRAK","updated_at":"2026-05-25T13:38:18.330048Z"}}}